[[{"header":{"parameterUnit":"m.s-1","parameterCategory":2,"la1":30.2992,"la2":30.254,"lo1":-89.0895,"lo2":-89.0443,"dy":0.0025,"dx":0.0025,"nx":19,"ny":19,"refTime":"2026-04-07T21:00:00:Z","depth":"0","parameterNumber":2,"parameterNumberName":"U-component_of_CURRENTS"},"data":[0,0,0,-0.2209,-0.2212,-0.2307,-0.2307,-0.2285,-0.2285,0,0,0,0,0,0,0,0,0,0,0,-0.2148,-0.2149,-0.2209,-0.2213,-0.2307,-0.2307,-0.2286,-0.2285,0,0,0,0,0,0,0,0,0,0,0,-0.2148,-0.2148,-0.2149,-0.2213,-0.2307,-0.2307,-0.2286,-0.2244,0,0,0,0,0,0,0,0,0,0,-0.2168,-0.2145,-0.2148,-0.2149,-0.2214,-0.2307,-0.2307,-0.2243,-0.2246,-0.221,0,-0.2225,0,-0.2275,-0.2283,-0.2283,0,0,0,-0.2189,-0.2143,-0.2172,-0.2149,-0.2215,-0.2307,-0.2257,-0.2246,-0.2249,-0.2213,-0.2225,-0.2227,-0.2275,-0.2282,-0.2282,-0.227,-0.227,0,0,-0.2184,-0.2159,-0.217,-0.2175,-0.2238,-0.2255,-0.2261,-0.225,-0.2246,-0.2226,-0.2227,-0.2274,-0.2282,-0.2282,-0.227,-0.227,0,0,0,-0.2185,-0.2155,-0.2187,-0.2173,-0.2214,-0.2258,-0.2265,-0.2246,-0.2258,-0.2228,-0.2274,-0.2282,-0.2282,-0.227,-0.227,-0.2318,0,0,0,-0.218,-0.2158,-0.2184,-0.2169,-0.2215,-0.2255,-0.2261,-0.2258,-0.226,-0.2274,-0.2282,-0.2281,-0.2269,-0.227,-0.2316,-0.2373,0,0,0,-0.2144,-0.2155,-0.2166,-0.2168,-0.2224,-0.2257,-0.2268,-0.226,-0.2289,-0.2283,-0.2281,-0.2269,-0.227,-0.2315,-0.2369,-0.2445,0,0,0,-0.2114,-0.2138,-0.2165,-0.2202,-0.2224,-0.2272,-0.2269,-0.2298,-0.2295,-0.2282,-0.2269,-0.227,-0.2314,-0.2367,-0.2442,-0.242,-0.2433,0,0,-0.213,-0.2138,-0.2162,-0.219,-0.2222,-0.2258,-0.2303,-0.2302,-0.2284,-0.2258,-0.2259,-0.2317,-0.2369,-0.2444,-0.2439,-0.2452,0,0,0,-0.2159,-0.2149,-0.2168,-0.2195,-0.2247,-0.2304,-0.231,-0.2328,-0.2331,-0.2292,-0.231,-0.2342,-0.2388,-0.2367,-0.2377,-0.2383,-0.2271,-0.2271,-0.2271,-0.208,-0.2124,-0.215,-0.2195,-0.224,-0.232,-0.2377,-0.2397,-0.2344,-0.2361,-0.2374,-0.246,-0.2435,-0.2443,-0.2448,-0.2348,-0.2348,-0.2348,-0.2348,-0.2051,-0.2069,-0.2131,-0.2166,-0.2252,-0.2292,-0.242,-0.2433,-0.2501,-0.243,-0.2471,-0.241,-0.2457,-0.2458,-0.2351,-0.2351,-0.235,-0.235,-0.235,-0.1973,-0.2002,-0.2025,-0.2108,-0.2202,-0.231,-0.2456,-0.2526,-0.2554,-0.2608,-0.2578,-0.2576,-0.2588,-0.2607,-0.2607,-0.2608,-0.2609,-0.2609,-0.2609,-0.1899,-0.1937,-0.1961,-0.2064,-0.2133,-0.2273,-0.248,-0.2569,-0.2657,-0.2662,-0.2661,-0.2616,-0.254,-0.2542,-0.2618,-0.2617,-0.2615,-0.2615,-0.2614,-0.1808,-0.1841,-0.1879,-0.1934,-0.2109,-0.2225,-0.2444,-0.2634,-0.2743,-0.2778,-0.2742,-0.2699,-0.2697,-0.2687,-0.2692,-0.2804,-0.2804,-0.2804,-0.2804,-0.1746,-0.1769,-0.1805,-0.1884,-0.2033,-0.2197,-0.2357,-0.2562,-0.274,-0.2783,-0.2825,-0.2736,-0.2728,-0.2723,-0.2712,-0.2716,-0.2831,-0.2831,-0.2831,-0.1686,-0.1712,-0.1709,-0.1802,-0.1977,-0.2127,-0.2248,-0.2493,-0.2745,-0.2834,-0.2847,-0.2845,-0.2713,-0.27,-0.2682,-0.2666,-0.2667,0,0]},{"header":{"parameterUnit":"m.s-1","parameterCategory":2,"la1":30.2992,"la2":30.254,"lo1":-89.0895,"lo2":-89.0443,"dy":0.0025,"dx":0.0025,"nx":19,"ny":19,"refTime":"2026-04-07T21:00:00:Z","depth":"0","parameterNumber":3,"parameterNumberName":"V-component_of_CURRENTS"},"data":[0,0,0,-0.0221,-0.0219,-0.0107,-0.0107,0.0065,0.0067,0,0,0,0,0,0,0,0,0,0,0,-0.0267,-0.0267,-0.0221,-0.0219,-0.0107,-0.0107,0.0065,0.0067,0,0,0,0,0,0,0,0,0,0,0,-0.0267,-0.0267,-0.0267,-0.0219,-0.0108,-0.0107,0.0065,-0.0023,0,0,0,0,0,0,0,0,0,0,-0.0133,-0.0183,-0.0267,-0.0267,-0.0218,-0.0108,-0.0107,-0.0027,-0.0017,0.0018,0,0.0019,0,0.0044,0.0077,0.0078,0,0,0,-0.0202,-0.0191,-0.0166,-0.0267,-0.0218,-0.0108,-0.0153,-0.0022,-0.0011,0.0031,0.0021,0.0028,0.0046,0.0078,0.0079,0.0221,0.0221,0,0,-0.0209,-0.0234,-0.0174,-0.016,-0.0208,-0.0157,-0.015,-0.0015,-0.0008,0.0022,0.0032,0.0049,0.008,0.0081,0.022,0.0221,0,0,0,-0.0238,-0.0239,-0.0217,-0.0167,-0.0151,-0.0154,-0.0146,-0.0014,-0.0009,0.0034,0.0051,0.008,0.0082,0.022,0.0221,0.0123,0,0,0,-0.0241,-0.0257,-0.022,-0.0232,-0.0154,-0.0084,-0.0148,-0.0019,-0.0002,0.005,0.008,0.0084,0.022,0.022,0.0124,0.0056,0,0,0,-0.0269,-0.0259,-0.0254,-0.0235,-0.0193,-0.0086,-0.0072,-0.0014,0.0008,0.0078,0.0084,0.0219,0.022,0.0126,0.0061,0.006,0,0,0,-0.0287,-0.0312,-0.0255,-0.0266,-0.0195,-0.0139,-0.0072,-0.0017,0.0036,0.0081,0.022,0.0221,0.0126,0.0063,0.0062,0.0059,0.0049,0,0,-0.0336,-0.0318,-0.0323,-0.027,-0.0249,-0.0152,-0.0106,-0.0011,0.0067,0.018,0.0183,0.0124,0.0061,0.0061,0.0109,0.0097,0,0,0,-0.0349,-0.0351,-0.0334,-0.0302,-0.0242,-0.0182,-0.007,-0.001,0.009,0.0101,0.0169,0.0133,0.0136,0.014,0.0132,0.0426,0.0224,0.0224,0.0224,-0.043,-0.0393,-0.0402,-0.0346,-0.0304,-0.0186,-0.0129,-0.0018,0.0065,0.0101,0.0088,0.0063,0.0069,0.0062,0.0367,0.0142,0.0142,0.0142,0.0141,-0.0497,-0.0505,-0.0455,-0.0451,-0.0377,-0.0322,-0.0181,-0.011,-0.0005,0.0056,0.0064,0.0079,0.0046,0.0375,0.0136,0.0137,0.0137,0.0138,0.0138,-0.0543,-0.0553,-0.0541,-0.0544,-0.0522,-0.0424,-0.041,-0.0268,-0.0114,-0.0102,-0.0042,-0.004,0.022,-0.0081,-0.0081,-0.0082,-0.0082,-0.0082,-0.0082,-0.0606,-0.0601,-0.0652,-0.0644,-0.0672,-0.0661,-0.0539,-0.0461,-0.0279,-0.0154,-0.0152,0.0264,-0.0004,-0.0029,-0.0087,-0.0086,-0.0086,-0.0085,-0.0085,-0.0671,-0.0677,-0.0773,-0.0819,-0.0887,-0.095,-0.0814,-0.0627,-0.0481,-0.0382,0.0184,-0.015,-0.0115,-0.0106,-0.013,-0.0212,-0.0212,-0.0212,-0.0212,-0.0727,-0.0732,-0.09,-0.1023,-0.1109,-0.1099,-0.1097,-0.0801,-0.0189,0.0161,0.0301,0.0397,0.0389,0.0461,0.0458,0.0449,0.0517,0.0518,0.052,-0.078,-0.0835,-0.0982,-0.1109,-0.1226,-0.1266,-0.1272,-0.0908,0.0084,0.0584,0.0717,0.0686,0.0863,0.0827,0.0969,0.094,0.0935,0,0]}],[{"header":{"parameterUnit":"m.s-1","parameterCategory":2,"la1":30.2992,"la2":30.254,"lo1":-89.0895,"lo2":-89.0443,"dy":0.0025,"dx":0.0025,"nx":19,"ny":19,"refTime":"2026-04-07T21:00:00:Z","depth":"2","parameterNumber":2,"parameterNumberName":"U-component_of_CURRENTS"},"data":[0,0,0,-0.208,-0.2082,-0.2179,-0.218,-0.2161,-0.216,0,0,0,0,0,0,0,0,0,0,0,-0.2019,-0.2019,-0.2079,-0.2083,-0.2179,-0.218,-0.2161,-0.216,0,0,0,0,0,0,0,0,0,0,0,-0.2018,-0.2019,-0.202,-0.2083,-0.2179,-0.218,-0.2161,-0.2118,0,0,0,0,0,0,0,0,0,0,-0.204,-0.202,-0.2019,-0.202,-0.2084,-0.2179,-0.218,-0.2118,-0.2121,-0.2082,0,-0.2096,0,-0.2145,-0.2158,-0.2157,0,0,0,-0.2063,-0.2018,-0.2043,-0.202,-0.2085,-0.2179,-0.213,-0.2121,-0.2124,-0.2086,-0.2096,-0.2097,-0.2145,-0.2157,-0.2157,-0.2143,-0.2144,0,0,-0.2058,-0.2035,-0.2041,-0.2045,-0.2105,-0.2127,-0.2134,-0.2124,-0.2122,-0.2096,-0.2098,-0.2144,-0.2157,-0.2157,-0.2143,-0.2143,0,0,0,-0.2055,-0.2031,-0.2059,-0.2044,-0.2084,-0.2131,-0.2138,-0.2122,-0.2132,-0.2099,-0.2144,-0.2157,-0.2156,-0.2143,-0.2143,-0.2192,0,0,0,-0.2051,-0.2032,-0.2056,-0.2044,-0.2085,-0.2128,-0.2136,-0.2132,-0.2134,-0.2144,-0.2157,-0.2156,-0.2143,-0.2143,-0.219,-0.2245,0,0,0,-0.2015,-0.2029,-0.2038,-0.2042,-0.2097,-0.213,-0.214,-0.2134,-0.2162,-0.2157,-0.2156,-0.2143,-0.2143,-0.2188,-0.2241,-0.2316,0,0,0,-0.199,-0.2012,-0.2037,-0.2074,-0.2096,-0.2144,-0.214,-0.2173,-0.2172,-0.2157,-0.2143,-0.2143,-0.2188,-0.2239,-0.2312,-0.2276,-0.2288,0,0,-0.2006,-0.2013,-0.2036,-0.2062,-0.2092,-0.2129,-0.2175,-0.2177,-0.2161,-0.2132,-0.2133,-0.219,-0.2241,-0.2315,-0.2298,-0.2309,0,0,0,-0.2034,-0.2024,-0.2043,-0.2068,-0.2118,-0.2174,-0.2183,-0.2201,-0.2207,-0.2169,-0.2184,-0.2215,-0.2261,-0.2231,-0.224,-0.2145,-0.2145,-0.2145,-0.2145,-0.1963,-0.2003,-0.2027,-0.2068,-0.2112,-0.219,-0.2248,-0.2268,-0.2217,-0.2236,-0.2249,-0.2334,-0.23,-0.2307,-0.2223,-0.2223,-0.2224,-0.2224,-0.2224,-0.1935,-0.1952,-0.2009,-0.2043,-0.2124,-0.2165,-0.2288,-0.2303,-0.2371,-0.2303,-0.2343,-0.2275,-0.232,-0.2228,-0.2227,-0.2226,-0.2226,-0.2226,-0.2225,-0.1863,-0.1889,-0.1912,-0.1989,-0.208,-0.2185,-0.2326,-0.2396,-0.2424,-0.2478,-0.244,-0.2438,-0.2398,-0.2479,-0.248,-0.248,-0.2481,-0.2481,-0.2481,-0.1794,-0.1829,-0.1852,-0.195,-0.2016,-0.2151,-0.2352,-0.2437,-0.2519,-0.2521,-0.252,-0.2421,-0.2413,-0.2414,-0.249,-0.2489,-0.2487,-0.2487,-0.2486,-0.1707,-0.1739,-0.1774,-0.1826,-0.1991,-0.2087,-0.2309,-0.2488,-0.2597,-0.2627,-0.2556,-0.2551,-0.2547,-0.2538,-0.2542,-0.2647,-0.2647,-0.2647,-0.2647,-0.1648,-0.167,-0.1702,-0.1774,-0.1913,-0.2054,-0.2157,-0.2269,-0.2429,-0.2425,-0.2434,-0.2323,-0.2323,-0.2299,-0.2295,-0.2291,-0.2331,-0.233,-0.233,-0.1589,-0.1614,-0.1609,-0.1695,-0.1856,-0.1969,-0.1982,-0.1959,-0.2077,-0.2309,-0.2295,-0.2642,-0.2499,-0.2491,-0.2468,-0.2456,-0.2454,0,0]},{"header":{"parameterUnit":"m.s-1","parameterCategory":2,"la1":30.2992,"la2":30.254,"lo1":-89.0895,"lo2":-89.0443,"dy":0.0025,"dx":0.0025,"nx":19,"ny":19,"refTime":"2026-04-07T21:00:00:Z","depth":"2","parameterNumber":3,"parameterNumberName":"V-component_of_CURRENTS"},"data":[0,0,0,-0.0191,-0.0189,-0.0077,-0.0077,0.0094,0.0096,0,0,0,0,0,0,0,0,0,0,0,-0.0237,-0.0237,-0.0191,-0.0188,-0.0078,-0.0077,0.0094,0.0096,0,0,0,0,0,0,0,0,0,0,0,-0.0237,-0.0237,-0.0236,-0.0188,-0.0078,-0.0077,0.0094,0.0007,0,0,0,0,0,0,0,0,0,0,-0.0103,-0.0153,-0.0237,-0.0236,-0.0188,-0.0078,-0.0077,0.0002,0.0012,0.0047,0,0.0048,0,0.0073,0.0106,0.0107,0,0,0,-0.0172,-0.0162,-0.0136,-0.0236,-0.0187,-0.0078,-0.0123,0.0008,0.0019,0.006,0.0051,0.0057,0.0076,0.0107,0.0108,0.0243,0.0244,0,0,-0.0178,-0.0205,-0.0144,-0.013,-0.0178,-0.0127,-0.012,0.0014,0.0021,0.0051,0.0062,0.0079,0.0109,0.011,0.0243,0.0243,0,0,0,-0.0207,-0.0209,-0.0187,-0.0137,-0.0121,-0.0124,-0.0116,0.0015,0.002,0.0063,0.0081,0.0109,0.0111,0.0243,0.0243,0.0143,0,0,0,-0.021,-0.0227,-0.019,-0.0203,-0.0124,-0.0054,-0.0118,0.0011,0.0027,0.008,0.011,0.0113,0.0242,0.0243,0.0145,0.0077,0,0,0,-0.0238,-0.0229,-0.0224,-0.0205,-0.0163,-0.0056,-0.0042,0.0015,0.0037,0.0107,0.0113,0.0242,0.0243,0.0146,0.0082,0.008,0,0,0,-0.0256,-0.0281,-0.0225,-0.0235,-0.0165,-0.0111,-0.0043,0.0013,0.0065,0.011,0.0242,0.0243,0.0147,0.0085,0.0082,0.0079,0.0067,0,0,-0.0305,-0.0287,-0.0292,-0.024,-0.0219,-0.0124,-0.008,0.0014,0.0093,0.0203,0.0206,0.0144,0.0082,0.008,0.0118,0.0106,0,0,0,-0.0318,-0.032,-0.0303,-0.0273,-0.0213,-0.0157,-0.0046,0.0012,0.0109,0.0126,0.0187,0.0151,0.0153,0.0157,0.0148,0.0246,0.0246,0.0246,0.0246,-0.04,-0.0364,-0.0373,-0.0318,-0.0278,-0.0164,-0.0111,-0.0003,0.0081,0.0114,0.0101,0.0071,0.0077,0.0069,0.0153,0.0153,0.0152,0.0152,0.0152,-0.0468,-0.0477,-0.0429,-0.0426,-0.0356,-0.0305,-0.0169,-0.0099,0.0,0.0063,0.0071,0.0091,0.0053,0.0145,0.0146,0.0147,0.0148,0.0148,0.0149,-0.0516,-0.0526,-0.0515,-0.0521,-0.0502,-0.0409,-0.0398,-0.026,-0.011,-0.0099,-0.0038,-0.0036,-0.001,-0.0078,-0.0078,-0.0079,-0.0079,-0.0079,-0.0079,-0.058,-0.0576,-0.0627,-0.0622,-0.0651,-0.0643,-0.0527,-0.0452,-0.0275,-0.0152,-0.015,-0.0006,0.0002,-0.002,-0.0084,-0.0083,-0.0083,-0.0082,-0.0082,-0.0646,-0.0652,-0.0748,-0.0795,-0.0865,-0.0926,-0.0797,-0.0618,-0.0476,-0.038,-0.0153,-0.015,-0.0114,-0.0104,-0.0126,-0.0214,-0.0214,-0.0214,-0.0214,-0.0702,-0.0707,-0.0875,-0.0997,-0.1084,-0.1072,-0.1066,-0.0794,-0.0453,-0.026,-0.0258,-0.0215,-0.0209,-0.0174,-0.0163,-0.0184,-0.0287,-0.0288,-0.0288,-0.0756,-0.0811,-0.0957,-0.1082,-0.1199,-0.1233,-0.1227,-0.0904,-0.0407,-0.0291,-0.0278,-0.0217,-0.0145,-0.0139,-0.0073,-0.006,-0.0089,0,0]}],[{"header":{"parameterUnit":"m.s-1","parameterCategory":2,"la1":30.2992,"la2":30.254,"lo1":-89.0895,"lo2":-89.0443,"dy":0.0025,"dx":0.0025,"nx":19,"ny":19,"refTime":"2026-04-07T21:00:00:Z","depth":"4","parameterNumber":2,"parameterNumberName":"U-component_of_CURRENTS"},"data":[0,0,0,-0.1089,-0.1091,-0.1203,-0.1204,-0.1314,-0.1314,0,0,0,0,0,0,0,0,0,0,0,-0.108,-0.108,-0.1089,-0.1091,-0.1203,-0.1204,-0.1314,-0.1314,0,0,0,0,0,0,0,0,0,0,0,-0.1079,-0.108,-0.1081,-0.1091,-0.1203,-0.1204,-0.1314,-0.1245,0,0,0,0,0,0,0,0,0,0,-0.1143,-0.111,-0.108,-0.1081,-0.1092,-0.1203,-0.1204,-0.1242,-0.1249,-0.1243,0,-0.1265,0,-0.1264,-0.1318,-0.1318,0,0,0,-0.1123,-0.1105,-0.1141,-0.1081,-0.1092,-0.1203,-0.1162,-0.1247,-0.1254,-0.1252,-0.1266,-0.1269,-0.1266,-0.1318,-0.1319,-0.1468,-0.1469,0,0,-0.1117,-0.1094,-0.1136,-0.1146,-0.1125,-0.1158,-0.1165,-0.1252,-0.1256,-0.1266,-0.1272,-0.1267,-0.1319,-0.1319,-0.1467,-0.1468,0,0,0,-0.1077,-0.1089,-0.1125,-0.1142,-0.1149,-0.116,-0.1168,-0.1254,-0.1268,-0.1273,-0.1269,-0.1319,-0.132,-0.1465,-0.1467,-0.1531,0,0,0,-0.1075,-0.1064,-0.1122,-0.1109,-0.1148,-0.12,-0.1168,-0.1263,-0.1272,-0.1268,-0.1319,-0.132,-0.1464,-0.1466,-0.1526,-0.1554,0,0,0,-0.1074,-0.1062,-0.1079,-0.1107,-0.1139,-0.1199,-0.122,-0.1266,-0.1267,-0.1318,-0.132,-0.1463,-0.1466,-0.1522,-0.1548,-0.1616,0,0,0,-0.1042,-0.1076,-0.1079,-0.1121,-0.1138,-0.1251,-0.122,-0.1312,-0.1367,-0.1319,-0.1464,-0.1467,-0.1521,-0.1544,-0.1611,-0.1363,0,0,0,-0.1069,-0.1079,-0.1107,-0.1112,-0.1216,-0.1238,-0.1357,-0.141,-0.1406,-0.1435,-0.1439,-0.1528,-0.1547,-0.1615,-0.1539,0,0,0,0,-0.1105,-0.1134,-0.1166,-0.1222,-0.1295,-0.1388,-0.1442,-0.1473,-0.1543,-0.1442,-0.157,-0.1581,-0.1621,-0.1466,-0.1482,-0.1481,-0.1481,-0.148,-0.148,-0.1109,-0.1163,-0.1234,-0.1321,-0.1399,-0.151,-0.1589,-0.1643,-0.162,-0.1675,-0.1664,-0.1802,-0.1644,-0.17,-0.17,-0.17,-0.1701,-0.1701,-0.1701,-0.1154,-0.1185,-0.1285,-0.1373,-0.1482,-0.1586,-0.1717,-0.174,-0.1836,-0.1784,-0.1819,-0.1582,-0.1708,-0.1707,-0.1706,-0.1705,-0.1704,-0.1704,-0.1704,-0.1127,-0.1152,-0.1227,-0.1361,-0.1497,-0.162,-0.1739,-0.1836,-0.1892,-0.1944,-0.178,-0.1862,-0.1821,-0.196,-0.1961,-0.1961,-0.1961,-0.1962,-0.1962,-0.1048,-0.1134,-0.12,-0.1349,-0.1422,-0.1556,-0.1761,-0.183,-0.1927,-0.1844,-0.1966,-0.189,-0.1881,-0.1838,-0.1969,-0.1968,-0.1967,-0.1966,-0.1966,-0.099,-0.1036,-0.1107,-0.1183,-0.1354,-0.1444,-0.1669,-0.1764,-0.1835,-0.1818,-0.1794,-0.18,-0.1756,-0.1751,-0.17,-0.1796,-0.1793,-0.1791,0,-0.0923,-0.0962,-0.1025,-0.1099,-0.1196,-0.1367,-0.1424,-0.1544,-0.1645,-0.1584,-0.1819,-0.1787,-0.1791,-0.1734,-0.1726,-0.1662,0,0,0,-0.0881,-0.0897,-0.0904,-0.0997,-0.1103,-0.1241,-0.1426,-0.1419,-0.1628,-0.163,-0.1723,-0.1741,-0.1864,-0.199,-0.1939,-0.1928,-0.1856,0,0]},{"header":{"parameterUnit":"m.s-1","parameterCategory":2,"la1":30.2992,"la2":30.254,"lo1":-89.0895,"lo2":-89.0443,"dy":0.0025,"dx":0.0025,"nx":19,"ny":19,"refTime":"2026-04-07T21:00:00:Z","depth":"4","parameterNumber":3,"parameterNumberName":"V-component_of_CURRENTS"},"data":[0,0,0,-0.0033,-0.0031,0.0055,0.0055,0.0187,0.0188,0,0,0,0,0,0,0,0,0,0,0,-0.0076,-0.0076,-0.0033,-0.0031,0.0055,0.0055,0.0186,0.0188,0,0,0,0,0,0,0,0,0,0,0,-0.0076,-0.0076,-0.0076,-0.0031,0.0054,0.0055,0.0186,0.0119,0,0,0,0,0,0,0,0,0,0,0.0034,-0.0002,-0.0076,-0.0076,-0.003,0.0054,0.0055,0.0115,0.0123,0.0151,0,0.0146,0,0.0172,0.0196,0.0196,0,0,0,-0.002,-0.0009,0.0004,-0.0076,-0.003,0.0054,0.0019,0.0119,0.0128,0.0161,0.0148,0.0154,0.0174,0.0197,0.0197,0.0273,0.0273,0,0,-0.0025,-0.0043,-0.0003,0.0008,-0.0029,0.0016,0.0021,0.0124,0.0131,0.0149,0.0157,0.0177,0.0198,0.0199,0.0273,0.0273,0,0,0,-0.0046,-0.0046,-0.0036,0.0002,0.0017,0.0018,0.0025,0.0127,0.0126,0.0159,0.0178,0.0198,0.02,0.0273,0.0273,0.0174,0,0,0,-0.0048,-0.0059,-0.0039,-0.0046,0.0015,0.0074,0.0024,0.0118,0.0131,0.0177,0.0198,0.0201,0.0273,0.0273,0.0177,0.0115,0,0,0,-0.0076,-0.0061,-0.0061,-0.0048,-0.0015,0.0072,0.0079,0.0122,0.0143,0.0197,0.0201,0.0273,0.0273,0.0179,0.0121,0.011,0,0,0,-0.0082,-0.0101,-0.0062,-0.0068,-0.0016,0.0012,0.0079,0.0117,0.0155,0.0199,0.0273,0.0273,0.018,0.0124,0.0113,0.0056,0,0,0,-0.0114,-0.0105,-0.0108,-0.0071,-0.0079,0.0002,0.0015,0.0094,0.0164,0.0243,0.0245,0.0176,0.0121,0.011,0.0043,0,0,0,0,-0.0122,-0.0136,-0.0127,-0.0118,-0.0079,-0.0058,0.0031,0.0075,0.0143,0.0185,0.0199,0.0168,0.0164,0.0141,0.0272,0.0272,0.0272,0.0272,0.0272,-0.019,-0.0174,-0.0198,-0.0182,-0.0163,-0.009,-0.0061,0.0018,0.0098,0.0114,0.0104,0.0049,0.0022,0.0137,0.0136,0.0136,0.0135,0.0135,0.0135,-0.0259,-0.0276,-0.0268,-0.0289,-0.0261,-0.0241,-0.0151,-0.0092,-0.0026,0.004,0.0042,0.0059,0.0125,0.0127,0.0129,0.013,0.013,0.0131,0.0131,-0.0302,-0.0317,-0.0331,-0.0376,-0.0396,-0.0342,-0.0354,-0.0252,-0.0131,-0.0129,-0.0104,-0.0008,-0.0018,-0.0108,-0.0108,-0.0109,-0.0109,-0.0109,-0.0109,-0.0341,-0.0363,-0.0428,-0.0468,-0.051,-0.053,-0.0465,-0.0414,-0.0282,-0.023,-0.0149,-0.0032,-0.0024,-0.003,-0.0115,-0.0114,-0.0113,-0.0112,-0.0112,-0.0392,-0.0407,-0.0512,-0.0573,-0.0675,-0.0687,-0.0638,-0.0519,-0.0468,-0.0384,-0.0261,-0.0252,-0.0217,-0.0205,-0.0215,-0.0358,-0.0359,-0.036,0,-0.0425,-0.0441,-0.0597,-0.072,-0.0809,-0.0789,-0.0756,-0.0667,-0.0492,-0.0497,-0.044,-0.0307,-0.0298,-0.0261,-0.0251,-0.0267,0,0,0,-0.0467,-0.0513,-0.0635,-0.0763,-0.0872,-0.0806,-0.0746,-0.0704,-0.0532,-0.0472,-0.0387,-0.038,-0.0248,-0.013,-0.0054,-0.0045,-0.0049,0,0]}]]